Weather observations for the past three days for
Harrison, Boone County Airport
Imperial (Metric)
Date Time (cdt) Wind (mph) Vis. (mi.) Weather Sky Cond. Temperature (ºF) Relative Humidity Wind Chill (°F) Heat Index (°F) Pressure Precipitation (in)
Air Dwpt 6 hour altimeter (in) sea level (mb) 1 hr 3 hr 6 hr
Max. Min.
16 15:53 S 15 G 20 10.00 A Few Clouds FEW060 89.1 66.9 48% 92 29.91 1011.3
16 14:53 S 10 G 21 10.00 A Few Clouds FEW050 88 68 52% 92 29.93 1011.8
16 13:53 Vrbl 5 10.00 Mostly Cloudy FEW050 BKN070 87.1 66.9 51% 90 29.96 1012.6
16 12:53 S 12 G 20 10.00 A Few Clouds FEW049 89.1 66.9 89.1 72 48% 92 29.98 1013.4
16 11:53 Vrbl 6 10.00 Partly Cloudy SCT043 SCT055 86 68 55% 89 30 1014.0
16 10:53 S 10 10.00 Fair CLR 84.9 69.1 59% 89 30 1014.2
16 09:53 S 8 10.00 Fair CLR 82.9 70 65% 87 29.99 1013.7
16 08:53 S 8 10.00 NULL NULL 80.1 69.1 69% 83 29.98 1013.5
16 07:53 SE 8 10.00 Fair CLR 75.9 69.1 79% 77 29.97 1013.1
16 06:53 S 7 8.00 Fair CLR 72 68 73.9 69.1 87% 29.96 1012.9
16 05:53 S 6 10.00 Fair CLR 70 66.9 90% 29.95 1012.6
16 04:53 S 6 10.00 Fair CLR 71.1 66.9 87% 29.95 1012.2
16 03:53 S 5 10.00 Fair CLR 71.1 66.9 87% 29.94 1012.2
16 02:53 S 3 10.00 Fair CLR 72 66.9 84% 29.95 1012.3
16 01:53 Calm 10.00 Fair CLR 73.9 68 82% 29.95 1012.5
16 00:53 S 3 10.00 Fair CLR 73.9 68 87.1 73 82% 29.95 1012.5
15 23:53 Calm 10.00 Fair CLR 75.9 69.1 79% 77 29.96 1012.6
15 22:53 S 3 10.00 Fair CLR 75.9 70 82% 77 29.95 1012.5
15 21:53 S 5 10.00 Fair CLR 79 70 74% 82 29.94 1012.2
15 20:53 S 9 10.00 Fair CLR 81 71.1 72% 85 29.93 1011.6
15 19:53 S 7 10.00 A Few Clouds FEW002 84 71.1 65% 89 29.93 1011.9
15 18:53 S 10 G 17 10.00 Mostly Cloudy BKN041 BKN050 87.1 71.1 91 86 59% 93 29.93 1011.9
15 17:53 S 10 10.00 Fair CLR 89.1 70 53% 94 29.93 1011.8
15 16:53 S 9 10.00 Fair CLR 90 70 52% 95 29.94 1012.2
15 15:53 S 7 10.00 A Few Clouds FEW043 FEW060 88 70 55% 93 29.96 1012.8
15 14:53 Vrbl 7 10.00 Mostly Cloudy BKN042 BKN055 90 71.1 54% 96 29.97 1013.2
15 13:53 SE 6 10.00 A Few Clouds FEW040 89.1 71.1 55% 95 29.99 1013.8
15 12:53 Vrbl 6 10.00 A Few Clouds FEW037 87.1 70 88 72 57% 92 30 1014.3
15 11:53 Vrbl 5 10.00 A Few Clouds FEW031 86 70 59% 91 30.02 1015.0
15 10:53 Calm 10.00 A Few Clouds FEW024 84 71.1 65% 89 30.03 1015.3
15 09:53 SE 9 10.00 Fair CLR 82 72 72% 87 30.04 1015.6
15 08:53 SE 6 10.00 Fair CLR 80.1 71.1 74% 84 30.06 1016.1
15 07:53 E 6 10.00 A Few Clouds FEW033 75 71.1 88% 75 30.06 1016.1
15 06:53 Calm 6.00 Fog/Mist CLR 72 69.1 73 69.1 91% 30.05 1015.8
15 05:53 Calm 7.00 Mostly Cloudy BKN031 69.1 66.9 93% 30.04 1015.6
15 04:53 Calm 7.00 Fair CLR 70 68 93% 30.02 1014.8
15 03:53 Calm 10.00 Fair CLR 71.1 68 90% 30.01 1014.6
15 02:53 Calm 10.00 Fair CLR 71.1 69.1 94% 30.01 1014.5
15 01:53 Calm 10.00 Fair CLR 71.1 68 90% 30.02 1015.0
15 00:53 Calm 10.00 Fair CLR 72 68 87.1 72 87% 30.03 1015.2
14 23:53 Calm 10.00 Fair CLR 73 68 84% 30.04 1015.5
14 22:53 Calm 10.00 Fair CLR 75 68 79% 76 30.03 1015.3
14 21:53 E 3 10.00 Fair CLR 77 66.9 71% 79 30.02 1014.9
14 20:53 Calm 10.00 Fair CLR 79 68 69% 81 30.01 1014.5
14 19:53 NE 5 10.00 Fair CLR 84 68 59% 87 30.01 1014.5
14 18:53 E 7 10.00 Fair CLR 87.1 66 90 87.1 50% 89 30 1014.1
14 17:53 Vrbl 5 10.00 Fair CLR 88 66 48% 90 30 1014.3
14 16:53 E 7 10.00 Fair CLR 90 66.9 47% 93 30.02 1014.7
14 15:53 NE 12 10.00 Fair CLR 89.1 68 50% 93 30.03 1015.1
14 14:53 NE 8 10.00 Fair CLR 90 68 48% 94 30.03 1015.4
14 13:53 Calm 10.00 A Few Clouds FEW044 88 66 48% 90 30.05 1015.8
14 12:53 N 7 10.00 Fair CLR 88 68 88 71.1 52% 92 30.05 1016.0
14 11:53 NE 8 10.00 Fair CLR 86 68 55% 89 30.06 1016.1
14 10:53 NW 5 10.00 Fair CLR 82.9 66.9 59% 86 30.03 1015.2
14 09:53 W 8 10.00 Fair CLR 82 66 58% 84 30.01 1014.6
14 08:53 N 8 10.00 Fair CLR 78.1 64.9 64% 80 30 1014.4
14 07:53 S 8 10.00 Fair CLR 75 64.9 71% 77 29.99 1013.9
14 06:53 S 6 10.00 Fair CLR 71.1 63 72 68 76% 29.98 1013.7
14 05:53 S 9 10.00 Fair CLR 71.1 63 76% 30 1014.3
14 04:53 N 5 10.00 Mostly Cloudy BKN040 72 64 76% 30.07 1016.6
14 03:53 N 12 10.00 Mostly Cloudy SCT040 BKN050 70 66.9 90% 30.08 1016.9
14 02:53 S 5 10.00 Fair CLR 69.1 66 90% 30.01 1014.5
14 01:53 Calm 10.00 Fair CLR 69.1 66 90% 30.03 1015.2
14 00:53 NW 3 10.00 Fair CLR 69.1 66 84.9 69.1 90% 30.03 1015.2
13 23:53 Calm 10.00 Fair CLR 71.1 66 84% 30 1014.1
13 22:53 Calm 10.00 Fair CLR 73 66 79% 29.98 1013.4
13 21:53 S 5 10.00 Fair CLR 75.9 66 72% 77 29.95 1012.4
13 20:53 S 7 10.00 Fair CLR 77 66.9 71% 79 29.93 1012.0
13 19:53 S 7 10.00 Fair CLR 81 66.9 62% 83 29.93 1012.1
13 18:53 Vrbl 5 10.00 Fair CLR 84.9 69.1 89.1 84.9 59% 89 29.96 1012.9
13 17:53 SW 6 10.00 Fair CLR 89.1 64.9 45% 91 29.95 1012.8
13 16:53 S 10 10.00 Fair CLR 89.1 66.9 48% 92 29.96 1013.0
Date Time (cdt) Wind (mph) Vis. (mi.) Weather Sky Cond. Air Dwpt Max. Min. Relative Humidity Wind Chill (°F) Heat Index (°F) altimeter (in) sea level (mb) 1 hr 3 hr 6 hr
6 hour
Temperature (ºF) Pressure Precipitation (in)